Погода в Бугульме

Хотите узнать прогноз погоды в Бугульме? Тогда Вам сюда: Погода в Бугульме

Поиск расширенной информации на нашем сайте:

Полезная информация:

Новости сайта



02.01.2020
Опубликован Долгосрочный прогноз погоды по городам России и ближнего зарубежья на январь 2020 года.
Карты: Прогноз на январь и февраль 2020 года, Сравнение прогнозируемой аномалии приземной температуры воздуха на январь 2020 года по разным моделям.




Погода в Бугульме - сегодня

Время (UTC), дата Ветер
(°,м/с) 
Видим.   Явления Облачность Т
(°С)
Тd
(°С)
f(%) Тe
(°С)
Pmin
(гПа)
dP
(гПа)
Po
(мм)
O2
(г/м3)
Тmin Tmax R s Состояние
почвы
09 04.06.20 110 (В) 20000 м    10/4 1500 м средняя, верхняя 
[Sc|Ac trans|Ci fib]
+20.8 +11.6 56 +25  1013.8  0.2  734  273           
12 04.06.20 110 (В) 20000 м  в посл. час ливневой дождь  10/6 1200 м кучево-дожд., средняя, верхняя 
[Cb calv|Ac trans|Ci fib]
+20.8 +12.4 59 +26  1013.9  734  272           
15 04.06.20 120 (ЮВ) 20000 м  в посл. час ливневой дождь  10/6 1200 м кучево-дожд., средняя 
[Cb calv|Ac und]
+20.4 +12.4 60 +25  1013.7  -0.3  734  273    +22       
18 04.06.20 140 (ЮВ) 10 км  слаб. ливневой дождь  10/8 1000 м кучево-дожд., средняя 
[Cb calv|Ac und]
+16.8 +13.2 79 +24  1015.2  1.1  735  276           
21 04.06.20 160 (Ю) 10 км  {ливн. осадки}  10/8 1200 м кучево-дожд., средняя 
[Cb calv|Ac und]
+16 +13.3 84 +22  1016.1  0.8  735  277           
00 05.06.20 180 (Ю) 20000 м  {ливн. осадки}  10/6 1200 м средняя, верхняя 
[Sc|Ac trans|Ci fib]
+15.5 +11.2 76 +19  1017.4  1.1  736  279           
03 05.06.20 150 (ЮВ) 20000 м    8/4 1000 м средняя, верхняя 
[Sc diur, vesp|Ac trans|Ci fib]
+17.6 +8 53 +18  1018.1  0.9  737  278  +14.9      влажная 
06 05.06.20 180 (Ю) 6-12{12}  20000 м    10/6 1200 м средняя, верхняя 
[Sc|Ac trans|Ci fib]
+19 +6.4 44 +19  1019.3  1.3  738  277           
09 05.06.20 150 (ЮВ) 5-12{12}  20000 м    10/6 1200 м верхняя 
[Sc|Ci fib]
+22 +6.4 36 +22  1018.9  738  274           
12 05.06.20 140 (ЮВ) 5-10{12}  20000 м    8/3 1000 м верхняя 
[Sc|Ci fib]
+24.1 +6.1 31 +24  1018.1  -0.6  737  272           
15 05.06.20 150 (ЮВ) 5{11}  20000 м    4/3 1000 м верхняя 
[Sc|Ci fib]
+22.7 +4.8 31 +23  1018.3  -0.1  738  274    +24.2       
18 05.06.20 140 (ЮВ) 2{10}  10 км    8/6 1380 м средняя, верхняя 
[Sc|Ac trans|Ci fib]
+17.2 +5.8 47 +18  1019.3  0.3  738  279           
21 05.06.20 130 (ЮВ) 10 км    10/6 1500 м средняя, верхняя 
[Sc|Ac trans|Ci fib]
+15.2 +5.1 51 +15  1019  -0.5  737  281           
00 06.06.20 140 (ЮВ) 20000 м    10/6 1500 м средняя, верхняя 
[Sc|Ac trans|Ci fib]
+14 +2.9 47 +14  1018.6  -0.5  737  282           
03 06.06.20 150 (ЮВ) 20000 м  слаб. дождь  10/8 1380 м средняя 
[Sc|Ac und]
+12.5 +6.4 66 +12  1019.4  0.6  737  283  +12.5        влажная 
06 06.06.20 190 (Ю) 20000 м  слаб. ливневой дождь  10/8 1000 м кучево-дожд., средняя 
[Cb calv|Ac und]
+11.9 +9.7 86 +13  1020.1  0.6  738  283  +11.2         
09 06.06.20 130 (ЮВ) 20000 м  слаб. ливневой дождь  10/8 1200 м кучево-дожд., средняя 
[Cb calv|Ac und]
+11.9 +9.4 85 +13  1019.8  -0.2  738  283           
12 06.06.20 070 (В) 20000 м  слаб. ливневой дождь  10/8 930 м кучево-дожд., средняя 
[Cb calv|Ac und]
+12 +10.6 91 +14  1019.7  0.1  738  283           
15 06.06.20 080 (В) 20000 м  {ливн. осадки}  10/8 1200 м кучево-дожд., средняя, верхняя 
[Cb calv|Ac trans|Ci fib]
+12.7 +11.4 92 +16  1018  -1.5  737  281    +12.8  13     
18 06.06.20 тихо ()   10 км  {ливн. осадки}  10/4 1000 м кучево-дожд., верхняя 
[Cb calv|Ci fib]
+11.3 +10.2 93 +13  1018.3  0.1  737  283           
21 06.06.20 180 (Ю) 0500 м  туман  6/3 1000 м средняя, верхняя 
[Sc diur, vesp|Ac trans|Ci fib]
+8.7 +8 95 +10  1018.4  -0.3  736  286           
00 07.06.20 190 (Ю) 20000 м  гроза без осадков{туман}  10/8 1200 м кучево-дожд., верхняя 
[Cb calv|Ci fib]
+10.1 +9.5 96 +12  1018.2  736  284           
03 07.06.20 180 (Ю) 20000 м  в посл. час ливневой дождь{гроза}  10/6 1000 м кучево-дожд., средняя, верхняя 
[Cb calv|Ac trans|Ci fib]
+13 +12 94 +17  1018.2  0.4  737  281  +8.3      мокрая 
06 07.06.20 170 (Ю) 6{11}  20000 м  {гроза, ливн. осадки}  8/6 400 м кучево-дожд., средняя 
[Cb calv|Ac trans]
+15.8 +12.9 83 +21  1018  -0.1  737  278           
09 07.06.20 150 (ЮВ) 20000 м  гроза без осадков{ливн. осадки}  10/8 300 м кучево-дожд., средняя 
[Cb calv|Ac und]
+15.9 +14.1 89 +24  1018.5  0.5  737  278           
Время (UTC), дата Ветер
(°,м/с) 
Видим.   Явления Облачность Т
(°С)
Тd
(°С)
f(%) Тe
(°С)
Pmin
(гПа)
dP
(гПа)
Po
(мм)
O2
(г/м3)
Тmin Tmax R s Состояние
почвы

Для получения пояснительной информации подведите курсор к названию столбца.

ПОГОДА в Бугульме - архив

Всё, что Вы хотите узнать о погоде в Бугульме - удобно и подробно!

Выберите нужную дату (начиная с 1 января 2019* года) и нажмите кнопку "Найти".
Будут отображены архивные сводки погоды по пункту Бугульма, начиная с указанной даты.


Отображать данные в формате CSV (для использования в таблицах Excel)


Внимание! Наш архив погоды предназначен исключительно для личного некоммерческого использования в познавательных целях. Если Вам необходимы официальные справки о состоянии погоды (для производственных, юридических, коммерческих и т.п. целей), обращайтесь в органы Росгидромета.

*Примечание: данная дата относится к архиву по метеостанциям СССР (Россия, СНГ, Балтия).
Архив по метеостанциям Зарубежной Европы и Азии (кроме Китая) хранится 10 дней, по другим регионам земного шара (Китай, Африка, Америка, Австралия, Океания) - 1 день.

Бугульма - район местоположения метеостанции


Название, широта, долгота, высота метеостанции:
Бугульма 54.6°ш. 52.8°д. 304 м над ур. моря [Российская Федерация]

Дополнительная информация

В oтличие oт бoльшинства пoгoдных сайтoв мы публикуем пoдрoбную метеoинфoрмацию в детальнoм прoфессиoнальнoм фoрмате.

Характеристики температуры и влажнoсти вoздуха измеряются на высoте 2 м в тени вдали oт зданий и деревьев.
Скoрoсть ветра измеряется на высoте 10 м (на урoвне рoста челoвека скoрoсть ветра ниже в 1.5-2 раза). Если метеoстанция нахoдится в гoрoде или в лесу, тo скoрoсть ветра занижена на 2-4 м/с пo сравнению с oткрытым местoм. Скoрoсть ветра над акватoриями крупных рек и oзёр, а также на вершинах хoлмoв на 2-5 м/с выше, чем в oбычных услoвиях.
Атмoсфернoе давление в разных тoчках местнoсти мoжет значительнo oтличаться oт давления на метеoстанции, в зависимoсти oт услoвий рельефа (при пoдъёме на 10 м давление пoнижается примернo на 1 мм рт.ст.).